H1 CPF 2 NER 2025 12 13 9 347 01 glonass137 H2 1705501 9137 42939 2025 12 13 0 0 0 2025 12 16 23 45 0 900 1 1 0 0 0 1 H9 10 0 61022 0.00000 0 259782.049 -19092341.704 16907232.933 10 0 61022 900.00000 0 986731.961 -20895380.148 14586754.093 10 0 61022 1800.00000 0 1477279.378 -22461649.465 11982744.816 10 0 61022 2700.00000 0 1758595.357 -23738022.346 9145771.253 10 0 61022 3600.00000 0 1867439.886 -24679968.287 6130955.389 10 0 61022 4500.00000 0 1848357.112 -25253378.801 2996902.477 10 0 61022 5400.00000 0 1751538.972 -25435974.906 -195442.030 10 0 61022 6300.00000 0 1630448.453 -25218237.042 -3383983.369 10 0 61022 7200.00000 0 1539304.157 -24603817.653 -6506692.234 10 0 61022 8100.00000 0 1530533.882 -23609418.656 -9502818.896 10 0 61022 9000.00000 0 1652306.278 -22264138.683 -12314082.148 10 0 61022 9900.00000 0 1946246.376 -20608317.573 -14885809.014 10 0 61022 10800.00000 0 2445432.784 -18691926.858 -17168002.387 10 0 61022 11700.00000 0 3172762.302 -16572574.130 -19116315.415 10 0 61022 12600.00000 0 4139751.940 -14313205.368 -20692913.485 10 0 61022 13500.00000 0 5345829.585 -11979601.751 -21867207.251 10 0 61022 14400.00000 0 6778143.897 -9637775.779 -22616442.818 10 0 61022 15300.00000 0 8411901.923 -7351375.429 -22926138.209 10 0 61022 16200.00000 0 10211220.803 -5179204.281 -22790358.280 10 0 61022 17100.00000 0 12130458.341 -3172960.309 -22211823.422 10 0 61022 18000.00000 0 14115967.198 -1375286.645 -21201850.505 10 0 61022 18900.00000 0 16108199.801 181785.734 -19780127.657 10 0 61022 19800.00000 0 18044076.467 1477939.951 -17974327.527 10 0 61022 20700.00000 0 19859518.212 2505175.388 -15819566.653 10 0 61022 21600.00000 0 21492038.839 3267886.658 -13357721.455 10 0 61022 22500.00000 0 22883288.358 3782417.722 -10636613.971 10 0 61022 23400.00000 0 23981441.698 4076111.477 -7709083.100 10 0 61022 24300.00000 0 24743333.086 4185896.144 -4631959.206 10 0 61022 25200.00000 0 25136246.996 4156469.191 -1464961.947 10 0 61022 26100.00000 0 25139290.843 4038156.327 1730457.303 10 0 61022 27000.00000 0 24744292.079 3884536.644 4892305.936 10 0 61022 27900.00000 0 23956182.212 3749934.778 7959250.405 10 0 61022 28800.00000 0 22792851.656 3686886.403 10871803.000 10 0 61022 29700.00000 0 21284481.471 3743684.407 13573472.186 10 0 61022 30600.00000 0 19472379.779 3962109.598 16011854.403 10 0 61022 31500.00000 0 17407371.198 4375441.967 18139646.419 10 0 61022 32400.00000 0 15147806.176 5006836.703 19915559.067 10 0 61022 33300.00000 0 12757272.657 5868133.874 21305115.119 10 0 61022 34200.00000 0 10302104.779 6959152.578 22281316.333 10 0 61022 35100.00000 0 7848791.523 8267500.194 22825167.167 10 0 61022 36000.00000 0 5461392.207 9768905.973 22926045.288 10 0 61022 36900.00000 0 3199065.484 11428066.396 22581911.779 10 0 61022 37800.00000 0 1113813.665 13199968.443 21799356.761 10 0 61022 38700.00000 0 -751464.577 15031636.965 20593479.134 10 0 61022 39600.00000 0 -2364532.789 16864234.502 18987602.057 10 0 61022 40500.00000 0 -3704922.246 18635426.935 17012828.883 10 0 61022 41400.00000 0 -4764538.826 20281916.899 14707447.190 10 0 61022 42300.00000 0 -5547746.350 21742039.391 12116191.655 10 0 61022 43200.00000 0 -6070923.389 22958310.915 9289379.301 10 0 61022 44100.00000 0 -6361512.751 23879825.001 6281933.435 10 0 61022 45000.00000 0 -6456604.245 24464392.888 3152315.068 10 0 61022 45900.00000 0 -6401111.311 24680338.634 -38617.249 10 0 61022 46800.00000 0 -6245619.407 24507872.228 -3228796.554 10 0 61022 47700.00000 0 -6043998.205 23939982.030 -6356161.672 10 0 61022 48600.00000 0 -5850879.809 22982808.207 -9359871.967 10 0 61022 49500.00000 0 -5719110.974 21655480.840 -12181498.102 10 0 61022 50400.00000 0 -5697288.374 19989429.151 -14766164.718 10 0 61022 51300.00000 0 -5827482.378 18027190.740 -17063622.119 10 0 61022 52200.00000 0 -6143246.554 15820770.810 -19029225.697 10 0 61022 53100.00000 0 -6667997.858 13429620.317 -20624803.835 10 0 61022 54000.00000 0 -7413836.487 10918317.814 -21819397.590 10 0 61022 54900.00000 0 -8380855.671 8354051.949 -22589858.151 10 0 61022 55800.00000 0 -9556970.806 5804009.614 -22921290.999 10 0 61022 56700.00000 0 -10918275.423 3332778.329 -22807338.851 10 0 61022 57600.00000 0 -12429909.318 999870.415 -22250298.510 10 0 61022 58500.00000 0 -14047402.694 -1142528.769 -21261069.980 10 0 61022 59400.00000 0 -15718440.269 -3051496.014 -19858939.252 10 0 61022 60300.00000 0 -17384971.770 -4694909.633 -18071199.313 10 0 61022 61200.00000 0 -18985580.746 -6052530.455 -15932616.819 10 0 61022 62100.00000 0 -20458012.837 -7116581.006 -13484754.832 10 0 61022 63000.00000 0 -21741757.893 -7891800.418 -10775164.612 10 0 61022 63900.00000 0 -22780578.013 -8394974.427 -7856462.089 10 0 61022 64800.00000 0 -23524875.725 -8653961.769 -4785306.788 10 0 61022 65700.00000 0 -23933803.162 -8706259.283 -1621302.944 10 0 61022 66600.00000 0 -23977023.795 -8597167.293 1574155.850 10 0 61022 67500.00000 0 -23636052.845 -8377633.553 4739076.031 10 0 61022 68400.00000 0 -22905120.022 -8101867.418 7812064.409 10 0 61022 69300.00000 0 -21791518.288 -7824825.453 10733516.110 10 0 61022 70200.00000 0 -20315423.751 -7599674.959 13446767.207 10 0 61022 71100.00000 0 -18509193.853 -7475342.676 15899189.843 10 0 61022 72000.00000 0 -16416172.730 -7494252.232 18043208.925 10 0 61022 72900.00000 0 -14089053.006 -7690345.872 19837221.074 10 0 61022 73800.00000 0 -11587861.601 -8087474.044 21246398.549 10 0 61022 74700.00000 0 -8977652.599 -8698221.006 22243363.013 10 0 61022 75600.00000 0 -6326002.213 -9523216.417 22808716.550 10 0 61022 76500.00000 0 -3700408.964 -10550962.681 22931419.905 10 0 61022 77400.00000 0 -1165706.077 -11758186.350 22609010.712 10 0 61022 78300.00000 0 1218407.389 -13110700.072 21847657.297 10 0 61022 79200.00000 0 3399615.042 -14564740.333 20662046.568 10 0 61022 80100.00000 0 5334918.555 -16068726.228 19075107.507 10 0 61022 81000.00000 0 6992180.098 -17565366.763 17117574.786 10 0 61022 81900.00000 0 8351208.105 -18994029.293 14827400.029 10 0 61022 82800.00000 0 9404341.513 -20293270.352 12249021.287 10 0 61022 83700.00000 0 10156508.508 -21403422.876 9432504.175 10 0 61022 84600.00000 0 10624757.877 -22269130.935 6432570.810 10 0 61022 85500.00000 0 10837283.186 -22841724.877 3307535.273 10 0 61023 0.00000 0 10831981.676 -23081336.065 118166.693 10 0 61023 900.00000 0 10654609.443 -22958661.280 -3073499.203 10 0 61023 1800.00000 0 10356611.891 -22456301.064 -6205371.941 10 0 61023 2700.00000 0 9992722.295 -21569615.082 -9216522.769 10 0 61023 3600.00000 0 9618431.194 -20307057.132 -12048376.914 10 0 61023 4500.00000 0 9287434.904 -18689975.180 -14645859.186 10 0 61023 5400.00000 0 9049172.164 -16751884.303 -16958469.671 10 0 61023 6300.00000 0 8946554.007 -14537242.743 -18941268.138 10 0 61023 7200.00000 0 9013983.550 -12099782.254 -20555747.816 10 0 61023 8100.00000 0 9275749.791 -9500462.576 -21770581.675 10 0 61023 9000.00000 0 9744863.514 -6805135.397 -22562227.106 10 0 61023 9900.00000 0 10422384.467 -4082015.191 -22915377.780 10 0 61023 10800.00000 0 11297268.207 -1399061.945 -22823254.594 10 0 61023 11700.00000 0 12346739.006 1178615.773 -22287730.700 10 0 61023 12600.00000 0 13537173.169 3591230.137 -21319288.804 10 0 61023 13500.00000 0 14825455.671 5786554.102 -19936811.995 10 0 61023 14400.00000 0 16160753.256 7721840.208 -18167212.498 10 0 61023 15300.00000 0 17486629.711 9365339.691 -16044905.660 10 0 61023 16200.00000 0 18743414.704 10697360.183 -13611139.421 10 0 61023 17100.00000 0 19870726.946 11710819.493 -10913192.161 10 0 61023 18000.00000 0 20810045.884 12411273.978 -8003454.408 10 0 61023 18900.00000 0 21507224.053 12816421.947 -4938412.114 10 0 61023 19800.00000 0 21914834.603 12955104.384 -1777551.118 10 0 61023 20700.00000 0 21994255.337 12865846.327 1417795.897 10 0 61023 21600.00000 0 21717401.622 12595001.360 4585637.604 10 0 61023 22500.00000 0 21068035.151 12194578.268 7664524.304 10 0 61023 23400.00000 0 20042593.327 11719842.087 10594736.974 10 0 61023 24300.00000 0 18650504.039 11226791.137 13319442.091 10 0 61023 25200.00000 0 16913972.107 10769616.648 15785790.060 10 0 61023 26100.00000 0 14867245.630 10398252.162 17945936.190 10 0 61023 27000.00000 0 12555392.104 10156115.984 19757964.876 10 0 61023 27900.00000 0 10032634.413 10078141.752 21186699.527 10 0 61023 28800.00000 0 7360314.980 10189180.077 22204383.061 10 0 61023 29700.00000 0 4604571.666 10502838.667 22791216.170 10 0 61023 30600.00000 0 1833820.796 11020810.098 22935743.280 10 0 61023 31500.00000 0 -883849.282 11732716.089 22635078.750 10 0 61023 32400.00000 0 -3483267.013 12616475.645 21894968.806 10 0 61023 33300.00000 0 -5904642.384 13639182.640 20729687.587 10 0 61023 34200.00000 0 -8095806.031 14758457.069 19161768.630 10 0 61023 35100.00000 0 -10014130.360 15924214.307 17221576.204 10 0 61023 36000.00000 0 -11628053.246 17080778.982 14946723.848 10 0 61023 36900.00000 0 -12918141.232 18169255.273 12381350.553 10 0 61023 37800.00000 0 -13877648.168 19130054.291 9575267.842 10 0 61023 38700.00000 0 -14512546.354 19905472.111 6582993.811 10 0 61023 39600.00000 0 -14841029.301 20442209.438 3462692.696 10 0 61023 40500.00000 0 -14892507.632 20693725.932 275040.683 10 0 61023 41400.00000 0 -14706141.132 20622328.896 -2917959.522 10 0 61023 42300.00000 0 -14328969.799 20200907.064 -6054191.591 10 0 61023 43200.00000 0 -13813723.810 19414235.137 -9072641.444 10 0 61023 44100.00000 0 -13216406.112 18259792.955 -11914591.507 10 0 61023 45000.00000 0 -12593750.935 16748063.761 -14524769.191 10 0 61023 45900.00000 0 -12000666.733 14902298.238 -16852426.553 10 0 61023 46800.00000 0 -11487772.514 12757753.561 -18852329.647 10 0 61023 47700.00000 0 -11099132.313 10360438.986 -20485638.151 10 0 61023 48600.00000 0 -10870283.844 7765420.184 -21720658.245 10 0 61023 49500.00000 0 -10826644.674 5034752.906 -22533454.506 10 0 61023 50400.00000 0 -10982362.996 2235131.997 -22908309.456 10 0 61023 51300.00000 0 -11339661.206 -564646.662 -22838022.490 10 0 61023 52200.00000 0 -11888699.541 -3296306.150 -22324043.066 10 0 61023 53100.00000 0 -12607965.175 -5894682.128 -21376436.161 10 0 61023 54000.00000 0 -13465170.075 -8300183.138 -20013681.140 10 0 61023 54900.00000 0 -14418619.624 -10461016.415 -18262308.239 10 0 61023 55800.00000 0 -15418994.299 -12335087.801 -16156379.910 10 0 61023 56700.00000 0 -16411469.433 -13891498.095 -13736827.062 10 0 61023 57600.00000 0 -17338083.919 -15111574.948 -11050653.021 10 0 61023 58500.00000 0 -18140258.215 -15989398.718 -8150020.541 10 0 61023 59400.00000 0 -18761355.758 -16531801.851 -5091239.475 10 0 61023 60300.00000 0 -19149179.958 -16757843.253 -1933674.643 10 0 61023 61200.00000 0 -19258301.606 -16697781.017 1261404.890 10 0 61023 62100.00000 0 -19052118.594 -16391587.874 4432012.789 10 0 61023 63000.00000 0 -18504561.030 -15887072.718 7516645.656 10 0 61023 63900.00000 0 -17601369.695 -15237688.041 10455473.115 10 0 61023 64800.00000 0 -16340893.605 -14500116.101 13191494.810 10 0 61023 65700.00000 0 -14734372.585 -13731735.753 15671642.047 10 0 61023 66600.00000 0 -12805692.190 -12988076.697 17847802.996 10 0 61023 67500.00000 0 -10590620.291 -12320368.238 19677752.004 10 0 61023 68400.00000 0 -8135556.052 -11773285.508 21125965.488 10 0 61023 69300.00000 0 -5495842.273 -11382987.754 22164309.080 10 0 61023 70200.00000 0 -2733710.008 -11175531.021 22772583.148 10 0 61023 71100.00000 0 84060.435 -11165721.889 22938916.443 10 0 61023 72000.00000 0 2888666.299 -11356460.614 22660000.294 10 0 61023 72900.00000 0 5611893.337 -11738601.624 21941158.714 10 0 61023 73800.00000 0 8188703.699 -12291337.807 20796252.599 10 0 61023 74700.00000 0 10559694.215 -12983093.184 19247419.240 10 0 61023 75600.00000 0 12673323.660 -13772887.212 17324651.380 10 0 61023 76500.00000 0 14487816.926 -14612114.110 15065223.027 10 0 61023 77400.00000 0 15972667.089 -15446662.911 12512972.305 10 0 61023 78300.00000 0 17109672.985 -16219289.289 9717454.506 10 0 61023 79200.00000 0 17893469.122 -16872139.215 6732981.216 10 0 61023 80100.00000 0 18331526.013 -17349317.645 3617564.029 10 0 61023 81000.00000 0 18443621.284 -17599393.141 431783.451 10 0 61023 81900.00000 0 18260804.362 -17577731.702 -2762394.587 10 0 61023 82800.00000 0 17823899.075 -17248560.050 -5902830.845 10 0 61023 83700.00000 0 17181608.187 -16586669.947 -8928429.085 10 0 61023 84600.00000 0 16388300.884 -15578690.348 -11780331.975 10 0 61023 85500.00000 0 15501577.685 -14223872.476 -14403072.377 10 0 61024 0.00000 0 14579716.702 -12534353.897 -16745656.717 10 0 61024 900.00000 0 13679109.462 -10534888.600 -18762560.078 10 0 61024 1800.00000 0 12851796.386 -8262056.058 -20414610.356 10 0 61024 2700.00000 0 12143204.634 -5762978.848 -21669748.568 10 0 61024 3600.00000 0 11590184.964 -3093604.185 -22503647.718 10 0 61024 4500.00000 0 11219429.605 -316619.907 -22900179.998 10 0 61024 5400.00000 0 11046337.395 2500908.529 -22851723.702 10 0 61024 6300.00000 0 11074373.304 5290082.151 -22359304.584 10 0 61024 7200.00000 0 11294948.564 7982788.463 -21432569.488 10 0 61024 8100.00000 0 11687825.773 10514289.163 -20089593.268 10 0 61024 9000.00000 0 12222031.230 12825668.940 -18356523.049 10 0 61024 9900.00000 0 12857235.604 14866044.544 -16267066.908 10 0 61024 10800.00000 0 13545544.387 16594443.382 -13861836.918 10 0 61024 11700.00000 0 14233622.485 17981274.650 -11187559.211 10 0 61024 12600.00000 0 14865063.197 19009332.957 -8296166.317 10 0 61024 13500.00000 0 15382901.695 19674293.846 -5243789.262 10 0 61024 14400.00000 0 15732166.886 19984681.824 -2089668.888 10 0 61024 15300.00000 0 15862364.004 19961313.472 1104992.455 10 0 61024 16200.00000 0 15729783.068 19636240.128 4278216.586 10 0 61024 17100.00000 0 15299535.698 19051235.531 7368449.516 10 0 61024 18000.00000 0 14547234.118 18255892.733 10315752.504 10 0 61024 18900.00000 0 13460241.192 17305410.880 13062961.152 10 0 61024 19800.00000 0 12038438.285 16258165.214 15556790.216 10 0 61024 20700.00000 0 10294477.867 15173162.606 17748863.020 10 0 61024 21600.00000 0 8253509.246 14107489.442 19596645.872 10 0 61024 22500.00000 0 5952387.675 13113858.861 21064269.915 10 0 61024 23400.00000 0 3438398.500 12238359.988 22123224.911 10 0 61024 24300.00000 0 767548.055 11518503.283 22752911.978 10 0 61024 25200.00000 0 -1997509.115 10981643.690 22941044.894 10 0 61024 26100.00000 0 -4789822.018 10643847.566 22683892.259 10 0 61024 27000.00000 0 -7540677.722 10509250.861 21986355.709 10 0 61024 27900.00000 0 -10182214.642 10569935.635 20861882.254 10 0 61024 28800.00000 0 -12650007.109 10806330.392 19332211.808 10 0 61024 29700.00000 0 -14885514.663 11188117.827 17426963.975 10 0 61024 30600.00000 0 -16838294.746 11675612.260 15183071.188 10 0 61024 31500.00000 0 -18467886.970 12221549.170 12644068.317 10 0 61024 32400.00000 0 -19745290.486 12773211.663 9859251.753 10 0 61024 33300.00000 0 -20653972.826 13274804.165 6882723.743 10 0 61024 34200.00000 0 -21190367.950 13669972.832 3772340.317 10 0 61024 35100.00000 0 -21363842.798 13904365.568 588583.351 10 0 61024 36000.00000 0 -21196133.966 13928122.536 -2606620.920 10 0 61024 36900.00000 0 -20720278.703 13698190.687 -5751113.224 10 0 61024 37800.00000 0 -19979085.895 13180363.183 -8783717.962 10 0 61024 38700.00000 0 -19023212.306 12350956.145 -11645440.724 10 0 61024 39600.00000 0 -17908926.171 11198050.619 -14280622.341 10 0 61024 40500.00000 0 -16695653.364 9722246.149 -16638026.307 10 0 61024 41400.00000 0 -15443410.497 7936893.124 -18671837.914 10 0 61024 42300.00000 0 -14210233.786 5867793.244 -20342555.422 10 0 61024 43200.00000 0 -13049712.404 3552379.892 -21617756.034 10 0 61024 44100.00000 0 -12008730.197 1038412.103 -22472722.148 10 0 61024 45000.00000 0 -11125510.559 -1617763.817 -22890916.207 10 0 61024 45900.00000 0 -10428046.068 -4353313.019 -22864295.600 10 0 61024 46800.00000 0 -9932978.107 -7101284.259 -22393462.187 10 0 61024 47700.00000 0 -9644972.556 -9793157.318 -21487644.104 10 0 61024 48600.00000 0 -9556616.746 -12361460.395 -20164510.762 10 0 61024 49500.00000 0 -9648840.951 -14742349.428 -18449824.890 10 0 61024 50400.00000 0 -9891845.737 -16878042.890 -16376938.601 10 0 61024 51300.00000 0 -10246495.303 -18719011.728 -13986143.288 10 0 61024 52200.00000 0 -10666117.470 -20225834.245 -11323885.851 10 0 61024 53100.00000 0 -11098633.953 -21370639.676 -8441866.418 10 0 61024 54000.00000 0 -11488930.676 -22138081.281 -5396034.920 10 0 61024 54900.00000 0 -11781367.877 -22525799.406 -2245505.902 10 0 61024 55800.00000 0 -11922323.808 -22544356.163 948587.366 10 0 61024 56700.00000 0 -11862664.454 -22216645.500 4124277.253 10 0 61024 57600.00000 0 -11560034.788 -21576804.246 7219961.617 10 0 61024 58500.00000 0 -10980874.598 -20668670.592 10175595.822 10 0 61024 59400.00000 0 -10102073.456 -19543855.270 12933853.894 10 0 61024 60300.00000 0 -8912194.564 -18259506.731 15441236.481 10 0 61024 61200.00000 0 -7412215.226 -16875864.285 17649104.387 10 0 61024 62100.00000 0 -5615751.864 -15453701.756 19514618.057 10 0 61024 63000.00000 0 -3548758.940 -14051768.599 21001565.297 10 0 61024 63900.00000 0 -1248712.964 -12724335.313 22081061.660 10 0 61024 64800.00000 0 1236685.879 -11518945.492 22732110.365 10 0 61024 65700.00000 0 3851242.051 -10474468.117 22942011.230 10 0 61024 66600.00000 0 6532352.609 -9619531.202 22706610.793 10 0 61024 67500.00000 0 9213369.542 -8971401.998 22030388.651 10 0 61024 68400.00000 0 11826139.776 -8535360.454 20926377.936 10 0 61024 69300.00000 0 14303618.423 -8304592.098 19415920.861 10 0 61024 70200.00000 0 16582447.582 -8260604.891 17528263.239 10 0 61024 71100.00000 0 18605394.001 -8374152.645 15299994.919 10 0 61024 72000.00000 0 20323544.345 -8606626.278 12774346.127 10 0 61024 72900.00000 0 21698166.584 -8911854.361 10000352.569 10 0 61024 73800.00000 0 22702159.630 -9238236.897 7031904.952 10 0 61024 74700.00000 0 23321030.350 -9531121.873 3926701.151 10 0 61024 75600.00000 0 23553356.864 -9735323.569 745121.476 10 0 61024 76500.00000 0 23410718.638 -9797675.217 -2450950.735 10 0 61024 77400.00000 0 22917096.435 -9669506.916 -5599339.519 10 0 61024 78300.00000 0 22107767.747 -9308942.683 -8638793.287 10 0 61024 79200.00000 0 21027744.784 -8682918.101 -11510183.845 10 0 61024 80100.00000 0 19729821.516 -7768831.926 -14157663.102 10 0 61024 81000.00000 0 18272312.863 -6555760.591 -16529754.297 10 0 61024 81900.00000 0 16716581.973 -5045183.194 -18580355.930 10 0 61024 82800.00000 0 15124460.349 -3251185.425 -20269638.671 10 0 61024 83700.00000 0 13555669.735 -1200132.954 -21564817.839 10 0 61024 84600.00000 0 12065354.234 1070172.807 -22440786.785 10 0 61024 85500.00000 0 10701826.108 3511821.851 -22880599.380 10 0 61025 0.00000 0 9504619.398 6068550.542 -22875792.906 10 0 61025 900.00000 0 8502931.539 8677853.177 -22426545.675 10 0 61025 1800.00000 0 7714518.811 11273359.237 -21541667.036 10 0 61025 2700.00000 0 7145088.520 13787382.518 -20238420.462 10 0 61025 3600.00000 0 6788213.725 16153533.336 -18542183.387 10 0 61025 4500.00000 0 6625772.095 18309287.113 -16485950.666 10 0 61025 5400.00000 0 6628889.322 20198402.943 -14109691.310 10 0 61025 6300.00000 0 6759346.315 21773092.207 -11459570.913 10 0 61025 7200.00000 0 6971390.008 22995847.587 -8587054.772 10 0 61025 8100.00000 0 7213870.732 23840857.021 -5547908.979 10 0 61025 9000.00000 0 7432615.395 24294944.347 -2401118.777 10 0 61025 9900.00000 0 7572935.892 24357998.127 792254.828 10 0 61025 10800.00000 0 7582166.430 24042871.477 3970258.023 10 0 61025 11700.00000 0 7412122.362 23374757.816 7071243.769 10 0 61025 12600.00000 0 7021376.355 22390069.326 10035064.687 10 0 61025 13500.00000 0 6377255.495 21134865.583 12804236.212 10 0 61025 14400.00000 0 5457474.623 19662898.536 15325047.630 10 0 61025 15300.00000 0 4251336.457 18033355.875 17548599.722 10 0 61025 16200.00000 0 2760447.184 16308397.187 19431749.280 10 0 61025 17100.00000 0 998916.355 14550585.770 20937942.699 10 0 61025 18000.00000 0 -1006968.593 12820323.081 22037922.931 10 0 61025 18900.00000 0 -3219581.104 11173392.500 22710296.558 10 0 61025 19800.00000 0 -5591274.209 9658714.443 22941950.338 10 0 61025 20700.00000 0 -8066125.893 8316405.961 22728309.224 10 0 61025 21600.00000 0 -10582040.111 7176225.328 22073430.793 10 0 61025 22500.00000 0 -13073117.569 6256466.132 20989933.822 10 0 61025 23400.00000 0 -15472198.963 5563346.753 19498761.834 10 0 61025 24300.00000 0 -17713475.842 5090920.517 17628785.344 10 0 61025 25200.00000 0 -19735061.111 4821510.107 15416249.640 10 0 61025 26100.00000 0 -21481412.356 4726647.837 12904077.904 10 0 61025 27000.00000 0 -22905506.904 4768482.034 10141042.426 10 0 61025 27900.00000 0 -23970677.534 4901590.028 7180819.398 10 0 61025 28800.00000 0 -24652031.595 5075120.772 4080945.435 10 0 61025 29700.00000 0 -24937393.651 5235175.957 901696.108 10 0 61025 30600.00000 0 -24827731.748 5327328.035 -2295091.302 10 0 61025 31500.00000 0 -24337049.134 5299167.522 -5447227.245 10 0 61025 32400.00000 0 -23491746.027 5102770.524 -8493387.171 10 0 61025 33300.00000 0 -22329478.485 4696980.679 -11374311.989 10 0 61025 34200.00000 0 -20897562.855 4049407.640 -14033967.422 10 0 61025 35100.00000 0 -19250993.526 3138056.290 -16420638.937 10 0 61025 36000.00000 0 -17450157.989 1952516.694 -18487940.441 10 0 61025 36900.00000 0 -15558345.835 494663.521 -20195716.823 10 0 61025 37800.00000 0 -13639156.753 -1221165.399 -21510822.885 10 0 61025 38700.00000 0 -11753916.410 -3168519.753 -22407763.831 10 0 61025 39600.00000 0 -9959208.454 -5309702.602 -22869185.362 10 0 61025 40500.00000 0 -8304625.514 -7597115.835 -22886204.525 10 0 61025 41400.00000 0 -6830832.528 -9975029.549 -22458575.554 10 0 61025 42300.00000 0 -5568022.361 -12381702.063 -21594688.100 10 0 61025 43200.00000 0 -4534826.983 -14751762.707 -20311398.389 10 0 61025 44100.00000 0 -3737728.312 -17018758.678 -18633696.934 10 0 61025 45000.00000 0 -3170991.829 -19117760.373 -16594219.453 10 0 61025 45900.00000 0 -2817124.231 -20987917.247 -14232610.521 10 0 61025 46800.00000 0 -2647834.445 -22574858.245 -11594752.243 10 0 61025 47700.00000 0 -2625456.325 -23832837.220 -8731872.837 10 0 61025 48600.00000 0 -2704772.039 -24726534.385 -5699552.289 10 0 61025 49500.00000 0 -2835158.413 -25232439.094 -2556644.299 10 0 61025 50400.00000 0 -2962964.966 -25339756.671 635864.601 10 0 61025 51300.00000 0 -3034022.703 -25050801.874 3816036.602 10 0 61025 52200.00000 0 -2996177.290 -24380863.010 6922181.924 10 0 61025 53100.00000 0 -2801739.278 -23357542.783 9894052.588 10 0 61025 54000.00000 0 -2409747.556 -22019603.817 12674007.551 10 0 61025 54900.00000 0 -1787950.151 -20415367.346 15208126.813 10 0 61025 55800.00000 0 -914418.370 -18600732.129 17447253.114 10 0 61025 56700.00000 0 221274.368 -16636896.280 19347941.454 10 0 61025 57600.00000 0 1617359.446 -14587876.886 20873298.495 10 0 61025 58500.00000 0 3259695.953 -12517930.510 21993696.044 10 0 61025 59400.00000 0 5122118.332 -10488981.574 22687345.256 10 0 61025 60300.00000 0 7167295.817 -8558165.177 22940720.754 10 0 61025 61200.00000 0 9348069.402 -6775586.034 22748826.567 10 0 61025 62100.00000 0 11609212.253 -5182386.270 22115298.626 10 0 61025 63000.00000 0 13889541.830 -3809201.940 21052341.467 10 0 61025 63900.00000 0 16124297.053 -2675072.174 19580499.754 10 0 61025 64800.00000 0 18247682.663 -1786846.001 17728268.267 10 0 61025 65700.00000 0 20195475.465 -1139111.270 15531546.990 10 0 61025 66600.00000 0 21907584.142 -714648.303 13032950.999 10 0 61025 67500.00000 0 23330455.781 -485388.830 10280987.745 10 0 61025 68400.00000 0 24419228.222 -413839.462 7329117.122 10 0 61025 69300.00000 0 25139537.571 -454909.152 4234712.297 10 0 61025 70200.00000 0 25468904.510 -558062.805 1057941.575 10 0 61025 71100.00000 0 25397640.541 -669709.134 -2139406.651 10 0 61025 72000.00000 0 24929235.548 -735720.676 -5295132.294 10 0 61025 72900.00000 0 24080210.025 -703978.103 -8347840.986 10 0 61025 73800.00000 0 22879438.035 -526829.803 -11238145.886 10 0 61025 74700.00000 0 21366969.470 -163361.310 -13909829.560 10 0 61025 75600.00000 0 19592401.427 418622.698 -16310942.563 10 0 61025 76500.00000 0 17612867.522 1240988.789 -18394816.827 10 0 61025 77400.00000 0 15490730.049 2314106.529 -20120973.843 10 0 61025 78300.00000 0 13291072.101 3636171.759 -21455910.008 10 0 61025 79200.00000 0 11079094.947 5193050.641 -22373744.208 10 0 61025 80100.00000 0 8917529.522 6958651.672 -22856715.505 10 0 61025 81000.00000 0 6864169.885 8895810.644 -22895521.927 10 0 61025 81900.00000 0 4969631.014 10957652.014 -22489494.454 10 0 61025 82800.00000 0 3275423.552 13089370.229 -21646603.428 10 0 61025 83700.00000 0 1812424.623 15230357.075 -20383297.803 10 0 61025 84600.00000 0 599807.067 17316586.717 -18724180.699 10 0 61025 85500.00000 0 -355529.780 19283159.318 -16701527.763 99